Precipitable_Water
0.96 0.98 1.05 1.08 1.13 1.16 1.16 1.25 1.30 1.33 1.35 1.35 1.30 1.25 1.23 1.26 1.27 1.30 1.34 1.31 1.35 1.35 1.30 1.25 1.22 1.21 1.25 1.27 1.28 1.28 1.28 1.30 1.31 1.27 1.22 1.19 1.20 1.19 1.19 1.16 1.11 1.08 1.05 1.01 0.99 0.96 0.92 0.86 0.83 0.80 0.77 0.71 0.67 0.63 0.60 0.59 0.57 0.57 0.58 0.57 0.54 0.52 0.51 0.54 0.56 0.65 0.61 0.58 0.50 0.44 0.42 0.42 0.39 0.37 0.40 0.43 0.43 0.45 0.39 0.41 0.41 0.39 0.37 0.36 0.40
0.94 0.96 1.01 1.07 1.06 1.09 1.14 1.23 1.30 1.33 1.32 1.31 1.32 1.27 1.22 1.23 1.28 1.31 1.30 1.32 1.36 1.34 1.30 1.25 1.21 1.21 1.23 1.26 1.26 1.26 1.26 1.28 1.28 1.26 1.19 1.17 1.17 1.18 1.16 1.12 1.08 1.04 1.02 0.96 0.94 0.91 0.87 0.81 0.79 0.78 0.75 0.71 0.66 0.60 0.58 0.53 0.51 0.50 0.50 0.50 0.49 0.51 0.52 0.56 0.58 0.64 0.53 0.49 0.46 0.45 0.41 0.40 0.39 0.40 0.40 0.39 0.39 0.38 0.38 0.39 0.39 0.37 0.35 0.36 0.39
0.92 0.95 0.98 1.04 1.03 1.08 1.16 1.23 1.29 1.26 1.26 1.28 1.29 1.26 1.23 1.25 1.29 1.28 1.29 1.32 1.35 1.33 1.31 1.26 1.20 1.20 1.22 1.24 1.25 1.23 1.23 1.24 1.26 1.23 1.18 1.16 1.14 1.14 1.13 1.09 1.04 1.00 0.96 0.92 0.88 0.86 0.82 0.79 0.78 0.76 0.73 0.68 0.63 0.60 0.58 0.53 0.51 0.50 0.50 0.49 0.50 0.52 0.55 0.59 0.62 0.60 0.51 0.42 0.44 0.41 0.40 0.36 0.40 0.42 0.41 0.41 0.38 0.37 0.37 0.38 0.37 0.38 0.37 0.36 0.38
0.93 0.94 0.98 1.01 1.04 1.10 1.14 1.19 1.25 1.24 1.23 1.25 1.25 1.25 1.25 1.26 1.28 1.28 1.30 1.32 1.30 1.31 1.33 1.27 1.21 1.18 1.18 1.22 1.23 1.21 1.21 1.21 1.22 1.20 1.17 1.16 1.13 1.10 1.10 1.07 1.03 1.00 0.94 0.88 0.84 0.82 0.79 0.78 0.77 0.74 0.70 0.66 0.62 0.60 0.55 0.55 0.51 0.51 0.49 0.49 0.52 0.53 0.59 0.61 0.62 0.60 0.49 0.40 0.39 0.38 0.41 0.40 0.37 0.38 0.39 0.37 0.38 0.38 0.36 0.37 0.38 0.39 0.38 0.38 0.39
0.92 0.94 0.97 0.97 1.02 1.07 1.11 1.17 1.19 1.18 1.17 1.19 1.20 1.24 1.25 1.27 1.28 1.26 1.30 1.30 1.29 1.28 1.30 1.29 1.22 1.17 1.15 1.19 1.20 1.19 1.19 1.19 1.18 1.17 1.16 1.16 1.13 1.10 1.09 1.05 1.02 0.99 0.93 0.87 0.83 0.80 0.79 0.77 0.76 0.71 0.67 0.64 0.60 0.56 0.56 0.53 0.52 0.49 0.46 0.47 0.53 0.57 0.57 0.58 0.56 0.53 0.45 0.38 0.36 0.40 0.42 0.41 0.43 0.41 0.38 0.37 0.40 0.40 0.40 0.36 0.35 0.38 0.39 0.40 0.41
0.90 0.92 0.95 0.94 0.97 1.02 1.09 1.13 1.12 1.10 1.11 1.15 1.17 1.21 1.25 1.26 1.26 1.27 1.30 1.30 1.29 1.26 1.25 1.25 1.22 1.17 1.17 1.21 1.23 1.21 1.19 1.18 1.17 1.15 1.14 1.14 1.12 1.10 1.09 1.05 1.02 0.97 0.92 0.87 0.82 0.80 0.79 0.77 0.75 0.70 0.66 0.63 0.58 0.56 0.55 0.53 0.51 0.50 0.48 0.50 0.51 0.52 0.53 0.56 0.50 0.44 0.41 0.40 0.38 0.39 0.38 0.38 0.38 0.39 0.40 0.37 0.34 0.34 0.35 0.36 0.38 0.39 0.39 0.40 0.41
0.87 0.89 0.91 0.90 0.91 0.96 1.02 1.05 1.06 1.05 1.07 1.12 1.17 1.21 1.23 1.26 1.26 1.25 1.30 1.32 1.28 1.22 1.22 1.23 1.22 1.20 1.19 1.23 1.23 1.20 1.18 1.17 1.15 1.13 1.13 1.13 1.12 1.10 1.08 1.05 1.02 0.96 0.91 0.86 0.82 0.81 0.80 0.77 0.73 0.69 0.65 0.63 0.59 0.56 0.54 0.54 0.53 0.51 0.52 0.49 0.46 0.47 0.50 0.46 0.43 0.40 0.40 0.40 0.39 0.39 0.39 0.41 0.41 0.41 0.41 0.38 0.34 0.34 0.32 0.33 0.34 0.37 0.37 0.36 0.37
0.83 0.85 0.87 0.86 0.86 0.91 0.96 1.01 1.03 1.05 1.07 1.13 1.16 1.19 1.22 1.25 1.26 1.27 1.30 1.30 1.27 1.23 1.20 1.20 1.21 1.21 1.21 1.23 1.25 1.21 1.17 1.14 1.13 1.12 1.12 1.13 1.11 1.10 1.08 1.05 1.01 0.96 0.90 0.85 0.82 0.81 0.78 0.77 0.73 0.68 0.66 0.64 0.60 0.58 0.57 0.55 0.55 0.53 0.53 0.49 0.47 0.47 0.46 0.43 0.41 0.39 0.39 0.38 0.39 0.40 0.41 0.40 0.37 0.39 0.41 0.37 0.38 0.42 0.42 0.32 0.30 0.33 0.35 0.37 0.39
0.75 0.79 0.82 0.82 0.81 0.87 0.95 1.01 1.04 1.04 1.05 1.09 1.12 1.15 1.18 1.22 1.26 1.27 1.28 1.30 1.30 1.26 1.25 1.24 1.19 1.18 1.20 1.23 1.23 1.19 1.14 1.13 1.13 1.12 1.10 1.10 1.12 1.10 1.09 1.05 1.01 0.95 0.88 0.84 0.82 0.80 0.78 0.76 0.72 0.69 0.66 0.66 0.62 0.60 0.60 0.59 0.55 0.52 0.51 0.50 0.48 0.47 0.46 0.44 0.39 0.38 0.36 0.36 0.39 0.41 0.41 0.39 0.38 0.40 0.38 0.40 0.40 0.39 0.41 0.36 0.34 0.39 0.37 0.36 0.39
0.74 0.78 0.79 0.79 0.81 0.88 0.95 1.00 1.01 1.02 1.02 1.02 1.05 1.10 1.15 1.20 1.23 1.25 1.26 1.31 1.31 1.30 1.27 1.26 1.21 1.17 1.16 1.18 1.19 1.16 1.14 1.14 1.14 1.14 1.12 1.11 1.11 1.11 1.09 1.05 1.01 0.95 0.87 0.83 0.81 0.79 0.77 0.75 0.71 0.70 0.68 0.63 0.59 0.59 0.59 0.55 0.55 0.57 0.54 0.51 0.48 0.48 0.47 0.42 0.39 0.36 0.36 0.37 0.41 0.42 0.39 0.37 0.37 0.38 0.39 0.42 0.40 0.39 0.37 0.40 0.37 0.37 0.37 0.37 0.38
0.72 0.75 0.75 0.77 0.81 0.88 0.95 0.97 1.00 0.99 0.99 1.02 1.06 1.09 1.12 1.16 1.20 1.22 1.26 1.30 1.30 1.30 1.28 1.25 1.21 1.18 1.14 1.14 1.15 1.15 1.14 1.14 1.15 1.13 1.11 1.12 1.13 1.10 1.07 1.04 1.00 0.94 0.87 0.83 0.79 0.77 0.76 0.74 0.74 0.70 0.64 0.62 0.61 0.60 0.58 0.56 0.56 0.57 0.56 0.54 0.53 0.52 0.46 0.41 0.38 0.37 0.36 0.39 0.44 0.42 0.39 0.38 0.39 0.41 0.40 0.41 0.42 0.39 0.40 0.38 0.36 0.37 0.35 0.32 0.30
0.71 0.72 0.75 0.80 0.85 0.88 0.92 0.95 0.97 0.98 1.00 1.01 1.04 1.07 1.10 1.14 1.17 1.20 1.24 1.27 1.29 1.30 1.28 1.27 1.23 1.18 1.13 1.13 1.15 1.16 1.15 1.16 1.14 1.11 1.10 1.11 1.13 1.11 1.08 1.04 0.99 0.93 0.87 0.84 0.80 0.78 0.75 0.74 0.74 0.68 0.66 0.64 0.64 0.62 0.60 0.59 0.57 0.57 0.55 0.52 0.50 0.50 0.50 0.47 0.42 0.37 0.38 0.43 0.45 0.42 0.39 0.39 0.41 0.41 0.41 0.40 0.40 0.42 0.42 0.41 0.40 0.39 0.37 0.35 0.34
0.72 0.72 0.78 0.82 0.88 0.90 0.92 0.95 0.96 0.94 0.95 1.01 1.02 1.06 1.07 1.10 1.14 1.17 1.20 1.26 1.30 1.27 1.29 1.29 1.25 1.20 1.13 1.10 1.14 1.17 1.16 1.16 1.14 1.10 1.09 1.10 1.12 1.11 1.07 1.05 0.99 0.92 0.87 0.84 0.81 0.79 0.76 0.74 0.73 0.69 0.69 0.67 0.65 0.65 0.63 0.61 0.60 0.59 0.54 0.49 0.46 0.45 0.43 0.44 0.44 0.45 0.47 0.47 0.46 0.41 0.39 0.41 0.41 0.43 0.43 0.42 0.43 0.37 0.39 0.39 0.43 0.41 0.38 0.36 0.34
0.76 0.74 0.75 0.81 0.89 0.91 0.93 0.95 0.93 0.92 0.95 1.01 1.01 1.03 1.04 1.06 1.13 1.20 1.25 1.28 1.27 1.27 1.30 1.29 1.27 1.22 1.15 1.12 1.15 1.18 1.18 1.16 1.13 1.10 1.08 1.08 1.10 1.09 1.06 1.05 1.00 0.93 0.89 0.85 0.84 0.82 0.78 0.75 0.74 0.70 0.73 0.69 0.69 0.69 0.67 0.65 0.63 0.58 0.51 0.46 0.44 0.43 0.40 0.40 0.41 0.43 0.46 0.49 0.46 0.41 0.43 0.43 0.42 0.46 0.47 0.43 0.39 0.39 0.41 0.42 0.43 0.40 0.38 0.34 0.33
0.76 0.74 0.75 0.81 0.89 0.91 0.94 0.95 0.92 0.91 0.95 0.99 0.99 1.00 1.01 1.06 1.13 1.19 1.23 1.24 1.25 1.26 1.27 1.28 1.28 1.25 1.19 1.14 1.15 1.17 1.18 1.17 1.13 1.10 1.07 1.07 1.08 1.07 1.05 1.04 1.01 0.95 0.91 0.87 0.86 0.83 0.80 0.78 0.76 0.71 0.75 0.71 0.72 0.72 0.70 0.68 0.62 0.55 0.50 0.46 0.47 0.46 0.43 0.42 0.41 0.43 0.45 0.44 0.47 0.46 0.47 0.46 0.45 0.48 0.50 0.46 0.42 0.42 0.43 0.42 0.40 0.38 0.37 0.38 0.43
0.74 0.75 0.78 0.84 0.88 0.92 0.92 0.93 0.93 0.93 0.93 0.95 0.95 0.96 0.99 1.05 1.10 1.19 1.23 1.26 1.30 1.31 1.31 1.33 1.31 1.31 1.26 1.17 1.15 1.15 1.17 1.17 1.13 1.10 1.07 1.06 1.07 1.06 1.04 1.05 1.00 0.95 0.92 0.89 0.87 0.84 0.83 0.80 0.76 0.74 0.77 0.73 0.74 0.73 0.73 0.70 0.61 0.53 0.49 0.48 0.48 0.48 0.47 0.47 0.48 0.51 0.53 0.46 0.45 0.49 0.52 0.53 0.48 0.50 0.49 0.48 0.48 0.48 0.46 0.45 0.45 0.45 0.44 0.42 0.38
0.76 0.79 0.81 0.84 0.89 0.90 0.92 0.91 0.91 0.90 0.90 0.90 0.89 0.91 0.96 1.04 1.14 1.21 1.22 1.26 1.26 1.26 1.26 1.29 1.30 1.27 1.23 1.19 1.15 1.15 1.17 1.17 1.13 1.10 1.08 1.06 1.04 1.04 1.05 1.04 0.98 0.94 0.90 0.89 0.87 0.86 0.85 0.81 0.77 0.76 0.79 0.76 0.76 0.73 0.73 0.68 0.60 0.53 0.49 0.48 0.47 0.48 0.48 0.49 0.49 0.50 0.48 0.44 0.44 0.47 0.49 0.48 0.45 0.43 0.41 0.41 0.40 0.41 0.41 0.38 0.40 0.45 0.40 0.33 0.34
0.83 0.85 0.85 0.87 0.87 0.87 0.89 0.91 0.89 0.88 0.88 0.86 0.87 0.92 1.01 1.10 1.16 1.20 1.22 1.25 1.24 1.26 1.28 1.30 1.31 1.27 1.20 1.15 1.14 1.15 1.17 1.17 1.13 1.10 1.08 1.04 1.04 1.04 1.07 1.02 0.97 0.92 0.88 0.89 0.87 0.87 0.85 0.82 0.79 0.80 0.80 0.79 0.77 0.73 0.72 0.67 0.61 0.54 0.51 0.49 0.47 0.46 0.45 0.51 0.50 0.48 0.47 0.43 0.40 0.41 0.43 0.42 0.42 0.42 0.41 0.41 0.40 0.40 0.39 0.36 0.41 0.40 0.36 0.37 0.34
0.88 0.86 0.90 0.93 0.93 0.91 0.90 0.92 0.92 0.89 0.87 0.87 0.89 0.93 1.01 1.07 1.14 1.21 1.26 1.29 1.28 1.29 1.32 1.29 1.26 1.23 1.18 1.13 1.14 1.15 1.16 1.16 1.13 1.11 1.08 1.05 1.03 1.06 1.07 1.00 0.96 0.90 0.86 0.86 0.85 0.87 0.88 0.83 0.79 0.81 0.81 0.82 0.76 0.74 0.71 0.65 0.59 0.55 0.52 0.50 0.47 0.44 0.42 0.49 0.52 0.47 0.44 0.41 0.39 0.38 0.39 0.40 0.42 0.43 0.44 0.42 0.41 0.41 0.42 0.41 0.41 0.40 0.37 0.36 0.35
0.96 0.98 0.97 0.98 0.98 0.98 0.99 0.95 0.94 0.91 0.88 0.90 0.94 0.98 1.06 1.11 1.16 1.19 1.24 1.27 1.27 1.28 1.28 1.26 1.20 1.15 1.13 1.11 1.13 1.15 1.15 1.14 1.13 1.11 1.09 1.07 1.06 1.10 1.07 0.99 0.94 0.90 0.87 0.86 0.84 0.86 0.88 0.83 0.79 0.80 0.82 0.82 0.77 0.74 0.71 0.62 0.56 0.54 0.52 0.49 0.46 0.43 0.45 0.51 0.54 0.48 0.44 0.41 0.40 0.40 0.40 0.43 0.44 0.45 0.45 0.47 0.44 0.43 0.43 0.43 0.43 0.41 0.39 0.38 0.37
1.04 1.04 1.02 1.02 1.02 1.01 1.01 0.98 0.96 0.96 0.96 0.97 1.01 1.05 1.09 1.12 1.17 1.19 1.22 1.26 1.26 1.24 1.22 1.22 1.18 1.12 1.11 1.11 1.13 1.14 1.14 1.12 1.13 1.12 1.10 1.09 1.08 1.09 1.05 1.01 0.98 0.95 0.92 0.89 0.84 0.84 0.85 0.81 0.81 0.81 0.83 0.80 0.76 0.74 0.68 0.56 0.54 0.56 0.53 0.50 0.47 0.49 0.50 0.52 0.53 0.46 0.45 0.45 0.44 0.44 0.44 0.44 0.46 0.48 0.48 0.48 0.50 0.49 0.45 0.42 0.42 0.43 0.41 0.38 0.36
1.08 1.09 1.06 1.04 1.04 1.04 1.03 1.03 1.03 1.01 1.03 1.05 1.04 1.07 1.14 1.19 1.22 1.23 1.25 1.24 1.20 1.16 1.14 1.13 1.10 1.06 1.09 1.15 1.16 1.14 1.13 1.13 1.14 1.13 1.12 1.09 1.07 1.08 1.05 1.00 0.98 0.96 0.94 0.93 0.87 0.85 0.84 0.83 0.85 0.83 0.81 0.78 0.77 0.73 0.64 0.55 0.50 0.57 0.56 0.54 0.54 0.50 0.49 0.54 0.56 0.47 0.41 0.44 0.46 0.44 0.43 0.43 0.44 0.45 0.46 0.46 0.48 0.49 0.51 0.51 0.49 0.46 0.44 0.42 0.40
1.13 1.14 1.12 1.07 1.04 1.05 1.05 1.04 1.01 1.03 1.05 1.07 1.08 1.10 1.16 1.19 1.22 1.23 1.21 1.17 1.12 1.07 1.02 1.02 1.03 1.04 1.04 1.10 1.14 1.14 1.14 1.15 1.16 1.14 1.12 1.10 1.06 1.04 1.02 1.00 0.96 0.95 0.93 0.91 0.87 0.87 0.88 0.87 0.87 0.81 0.79 0.79 0.76 0.69 0.62 0.56 0.51 0.53 0.58 0.57 0.55 0.53 0.51 0.50 0.47 0.44 0.39 0.39 0.41 0.42 0.41 0.40 0.40 0.42 0.45 0.45 0.47 0.48 0.50 0.53 0.52 0.51 0.48 0.45 0.43
1.14 1.12 1.12 1.11 1.09 1.07 1.06 1.05 1.06 1.08 1.10 1.11 1.12 1.14 1.17 1.20 1.21 1.19 1.17 1.14 1.11 1.08 1.05 1.01 0.98 0.97 1.00 1.05 1.09 1.13 1.16 1.16 1.15 1.14 1.13 1.10 1.04 1.03 1.02 1.00 0.96 0.97 0.96 0.96 0.93 0.91 0.91 0.88 0.85 0.79 0.80 0.77 0.72 0.66 0.62 0.60 0.57 0.54 0.57 0.59 0.57 0.57 0.56 0.51 0.44 0.42 0.40 0.40 0.40 0.40 0.40 0.40 0.41 0.42 0.44 0.46 0.46 0.48 0.49 0.53 0.51 0.45 0.43 0.44 0.46
1.13 1.13 1.11 1.12 1.11 1.10 1.10 1.11 1.12 1.13 1.15 1.16 1.14 1.16 1.17 1.18 1.14 1.18 1.18 1.14 1.13 1.12 1.09 1.04 0.97 0.93 0.97 1.04 1.06 1.12 1.16 1.15 1.15 1.16 1.15 1.10 1.04 1.02 1.02 1.00 0.98 0.97 0.99 1.02 1.00 0.96 0.91 0.84 0.81 0.79 0.78 0.74 0.71 0.67 0.64 0.63 0.62 0.61 0.60 0.62 0.63 0.63 0.60 0.56 0.50 0.43 0.41 0.40 0.39 0.39 0.39 0.40 0.41 0.44 0.46 0.47 0.47 0.50 0.49 0.44 0.42 0.43 0.45 0.46 0.48
1.12 1.13 1.12 1.12 1.13 1.16 1.14 1.15 1.17 1.19 1.21 1.22 1.21 1.21 1.18 1.17 1.15 1.16 1.18 1.15 1.12 1.09 1.08 1.07 1.03 0.96 0.93 0.98 1.05 1.10 1.15 1.15 1.16 1.18 1.14 1.07 1.02 1.00 1.00 1.00 0.99 1.01 1.03 1.05 0.99 0.92 0.84 0.79 0.80 0.78 0.76 0.73 0.71 0.69 0.67 0.66 0.65 0.67 0.67 0.68 0.68 0.67 0.65 0.61 0.55 0.49 0.43 0.40 0.38 0.37 0.37 0.40 0.42 0.44 0.46 0.47 0.47 0.45 0.42 0.41 0.43 0.43 0.44 0.44 0.45
1.15 1.16 1.15 1.16 1.18 1.20 1.19 1.19 1.20 1.22 1.23 1.25 1.25 1.24 1.23 1.23 1.20 1.15 1.14 1.11 1.09 1.09 1.09 1.08 1.06 1.02 0.97 0.98 1.02 1.09 1.14 1.15 1.18 1.15 1.10 1.02 0.98 0.98 0.98 0.99 1.04 1.08 1.03 0.99 0.93 0.85 0.79 0.82 0.81 0.79 0.75 0.73 0.71 0.70 0.68 0.68 0.69 0.70 0.71 0.72 0.71 0.70 0.67 0.61 0.55 0.52 0.48 0.43 0.39 0.37 0.37 0.38 0.42 0.45 0.46 0.45 0.42 0.40 0.41 0.42 0.43 0.44 0.43 0.42 0.41
1.15 1.17 1.21 1.23 1.22 1.22 1.21 1.23 1.24 1.23 1.25 1.25 1.22 1.22 1.24 1.24 1.18 1.15 1.11 1.09 1.06 1.07 1.10 1.11 1.09 1.05 1.01 1.00 1.00 1.06 1.08 1.20 1.21 1.15 1.07 0.99 0.99 1.01 1.04 1.07 1.12 1.04 0.98 0.96 0.93 0.87 0.85 0.85 0.81 0.76 0.74 0.73 0.73 0.72 0.71 0.73 0.73 0.72 0.73 0.74 0.74 0.73 0.70 0.64 0.59 0.56 0.53 0.48 0.41 0.38 0.38 0.39 0.40 0.42 0.43 0.42 0.41 0.43 0.45 0.45 0.45 0.46 0.44 0.41 0.39
1.18 1.19 1.23 1.25 1.25 1.28 1.28 1.26 1.26 1.26 1.26 1.27 1.27 1.26 1.23 1.21 1.18 1.20 1.26 1.25 1.18 1.15 1.12 1.12 1.11 1.11 1.12 1.10 1.09 1.09 1.15 1.19 1.22 1.23 1.13 1.10 1.08 1.07 1.09 1.13 1.07 1.00 1.01 1.02 0.98 0.93 0.87 0.81 0.76 0.75 0.74 0.73 0.72 0.72 0.73 0.75 0.75 0.75 0.75 0.75 0.74 0.74 0.71 0.65 0.57 0.52 0.51 0.48 0.42 0.39 0.38 0.40 0.40 0.40 0.39 0.40 0.42 0.43 0.46 0.45 0.47 0.45 0.43 0.41 0.38
1.18 1.18 1.21 1.24 1.26 1.27 1.28 1.27 1.30 1.29 1.28 1.26 1.25 1.28 1.34 1.33 1.31 1.25 1.23 1.29 1.31 1.28 1.23 1.19 1.21 1.18 1.13 1.16 1.18 1.12 1.08 1.16 1.23 1.17 1.13 1.15 1.16 1.21 1.21 1.17 1.12 1.09 1.06 1.03 1.01 0.89 0.80 0.76 0.76 0.75 0.74 0.73 0.72 0.73 0.74 0.74 0.74 0.73 0.74 0.75 0.75 0.73 0.71 0.65 0.56 0.51 0.50 0.47 0.43 0.41 0.39 0.39 0.38 0.39 0.41 0.41 0.43 0.43 0.44 0.43 0.42 0.44 0.41 0.40 0.39
1.19 1.18 1.18 1.18 1.21 1.24 1.26 1.27 1.29 1.28 1.29 1.27 1.26 1.24 1.23 1.27 1.30 1.31 1.32 1.31 1.29 1.28 1.29 1.31 1.31 1.26 1.20 1.12 1.17 1.21 1.21 1.21 1.23 1.24 1.22 1.19 1.21 1.22 1.21 1.17 1.12 1.09 1.07 1.02 0.94 0.83 0.76 0.76 0.77 0.76 0.75 0.75 0.74 0.75 0.75 0.75 0.74 0.72 0.72 0.74 0.73 0.73 0.70 0.63 0.55 0.51 0.48 0.45 0.43 0.43 0.43 0.41 0.39 0.40 0.40 0.41 0.41 0.42 0.43 0.46 0.48 0.44 0.40 0.39 0.40
1.17 1.18 1.19 1.19 1.19 1.20 1.20 1.22 1.22 1.21 1.22 1.23 1.22 1.20 1.17 1.14 1.17 1.24 1.27 1.27 1.27 1.27 1.30 1.34 1.36 1.33 1.25 1.19 1.15 1.13 1.12 1.16 1.20 1.20 1.21 1.24 1.25 1.23 1.19 1.15 1.10 1.07 1.05 1.01 0.91 0.83 0.80 0.79 0.79 0.78 0.78 0.77 0.78 0.77 0.76 0.75 0.74 0.72 0.71 0.72 0.72 0.71 0.68 0.60 0.55 0.52 0.49 0.47 0.46 0.45 0.44 0.43 0.42 0.41 0.40 0.40 0.40 0.41 0.42 0.41 0.42 0.42 0.42 0.43 0.42
1.11 1.15 1.18 1.19 1.19 1.20 1.20 1.18 1.17 1.17 1.16 1.16 1.15 1.15 1.11 1.09 1.06 1.07 1.15 1.23 1.27 1.28 1.34 1.35 1.35 1.35 1.31 1.26 1.22 1.16 1.11 1.13 1.18 1.19 1.20 1.23 1.26 1.25 1.17 1.15 1.10 1.06 1.02 0.94 0.86 0.83 0.83 0.83 0.82 0.81 0.80 0.79 0.80 0.79 0.78 0.75 0.73 0.72 0.72 0.71 0.70 0.69 0.66 0.60 0.55 0.53 0.51 0.51 0.51 0.49 0.47 0.45 0.43 0.41 0.40 0.41 0.40 0.39 0.39 0.39 0.39 0.40 0.42 0.43 0.44
1.13 1.14 1.13 1.15 1.15 1.15 1.17 1.18 1.18 1.18 1.19 1.17 1.15 1.13 1.13 1.12 1.10 1.08 1.07 1.10 1.16 1.20 1.25 1.29 1.32 1.33 1.32 1.29 1.25 1.18 1.13 1.14 1.20 1.22 1.22 1.25 1.24 1.21 1.16 1.12 1.10 1.05 0.99 0.91 0.88 0.85 0.85 0.85 0.85 0.83 0.82 0.82 0.81 0.80 0.78 0.76 0.73 0.73 0.73 0.72 0.72 0.70 0.66 0.61 0.55 0.51 0.52 0.54 0.53 0.52 0.50 0.48 0.46 0.43 0.42 0.39 0.38 0.37 0.37 0.37 0.38 0.38 0.40 0.41 0.41
1.15 1.14 1.14 1.15 1.15 1.15 1.17 1.17 1.16 1.16 1.16 1.14 1.13 1.12 1.11 1.12 1.12 1.09 1.09 1.09 1.10 1.10 1.13 1.21 1.26 1.31 1.29 1.26 1.23 1.21 1.16 1.14 1.17 1.17 1.16 1.21 1.23 1.20 1.15 1.07 0.99 0.93 0.91 0.89 0.88 0.89 0.88 0.87 0.87 0.87 0.85 0.82 0.82 0.81 0.79 0.78 0.75 0.73 0.72 0.71 0.69 0.68 0.66 0.61 0.56 0.52 0.52 0.53 0.53 0.52 0.49 0.47 0.47 0.47 0.44 0.40 0.35 0.33 0.33 0.34 0.36 0.39 0.41 0.43 0.42
1.08 1.09 1.10 1.11 1.13 1.14 1.15 1.16 1.17 1.17 1.16 1.14 1.14 1.13 1.12 1.11 1.09 1.09 1.11 1.13 1.14 1.08 1.09 1.13 1.21 1.26 1.26 1.24 1.20 1.18 1.15 1.15 1.16 1.17 1.18 1.19 1.17 1.14 1.04 0.97 0.93 0.91 0.91 0.92 0.91 0.92 0.92 0.92 0.89 0.87 0.86 0.85 0.83 0.81 0.80 0.79 0.76 0.73 0.71 0.69 0.66 0.65 0.64 0.60 0.58 0.54 0.54 0.54 0.52 0.49 0.48 0.48 0.48 0.48 0.48 0.43 0.38 0.33 0.31 0.31 0.33 0.38 0.41 0.42 0.42
1.06 1.04 1.05 1.08 1.10 1.10 1.11 1.12 1.14 1.15 1.15 1.16 1.15 1.12 1.10 1.10 1.10 1.09 1.10 1.11 1.10 1.05 1.05 1.08 1.12 1.18 1.20 1.21 1.19 1.17 1.16 1.14 1.15 1.20 1.21 1.16 1.11 1.08 1.03 1.00 0.96 0.94 0.92 0.93 0.93 0.92 0.90 0.89 0.90 0.88 0.87 0.85 0.82 0.80 0.80 0.78 0.75 0.72 0.70 0.68 0.67 0.64 0.61 0.60 0.61 0.59 0.55 0.51 0.48 0.47 0.49 0.49 0.49 0.49 0.47 0.40 0.35 0.32 0.29 0.28 0.31 0.36 0.40 0.41 0.40
1.09 1.09 1.09 1.08 1.08 1.08 1.08 1.08 1.09 1.10 1.10 1.11 1.10 1.07 1.07 1.08 1.10 1.12 1.10 1.07 1.06 1.04 1.03 1.05 1.09 1.12 1.13 1.13 1.15 1.13 1.11 1.11 1.13 1.12 1.11 1.08 1.05 1.03 1.03 1.00 0.98 0.97 0.95 0.94 0.92 0.91 0.90 0.91 0.90 0.88 0.87 0.85 0.82 0.80 0.79 0.77 0.75 0.73 0.70 0.68 0.64 0.62 0.61 0.60 0.58 0.58 0.53 0.48 0.47 0.48 0.48 0.48 0.47 0.46 0.43 0.38 0.32 0.29 0.26 0.26 0.28 0.34 0.38 0.40 0.39
1.07 1.07 1.07 1.08 1.08 1.08 1.08 1.06 1.05 1.05 1.04 1.04 1.03 1.04 1.05 1.07 1.07 1.06 1.08 1.06 1.04 1.05 1.03 1.03 1.07 1.11 1.13 1.14 1.11 1.10 1.09 1.07 1.04 1.01 0.99 1.00 1.02 1.04 1.02 1.01 0.97 0.93 0.90 0.91 0.92 0.92 0.91 0.90 0.89 0.88 0.87 0.84 0.83 0.81 0.78 0.76 0.74 0.71 0.70 0.67 0.63 0.60 0.58 0.56 0.54 0.52 0.50 0.47 0.46 0.47 0.47 0.46 0.45 0.44 0.41 0.37 0.33 0.29 0.26 0.25 0.27 0.33 0.37 0.39 0.40
1.08 1.07 1.07 1.07 1.05 1.04 1.05 1.06 1.06 1.05 1.05 1.04 1.04 1.05 1.04 1.02 1.01 1.01 1.03 1.05 1.06 1.07 1.05 1.04 1.06 1.11 1.14 1.12 1.11 1.08 1.03 1.01 1.00 1.00 1.00 1.01 1.02 1.02 1.00 0.95 0.91 0.89 0.90 0.91 0.90 0.90 0.89 0.88 0.88 0.86 0.84 0.84 0.82 0.79 0.74 0.70 0.68 0.68 0.67 0.64 0.61 0.59 0.58 0.54 0.50 0.48 0.47 0.45 0.44 0.45 0.45 0.45 0.45 0.43 0.40 0.36 0.33 0.31 0.27 0.25 0.26 0.31 0.37 0.39 0.41
1.10 1.10 1.09 1.09 1.08 1.07 1.04 1.03 1.02 1.02 1.02 1.02 1.02 1.02 1.01 1.00 0.99 1.00 1.03 1.05 1.03 1.04 1.04 1.07 1.12 1.15 1.14 1.13 1.12 1.10 1.08 1.00 1.04 1.03 1.02 1.01 0.97 0.94 0.91 0.90 0.91 0.92 0.94 0.95 0.93 0.93 0.93 0.93 0.91 0.87 0.84 0.80 0.80 0.77 0.72 0.68 0.67 0.66 0.63 0.62 0.60 0.57 0.55 0.51 0.48 0.47 0.46 0.44 0.43 0.43 0.44 0.45 0.44 0.41 0.37 0.34 0.32 0.30 0.27 0.25 0.28 0.34 0.38 0.40 0.40
1.10 1.09 1.08 1.08 1.09 1.09 1.07 1.06 1.06 1.05 1.03 1.01 1.00 1.00 0.99 0.99 1.00 1.01 1.01 0.99 0.99 1.03 1.07 1.11 1.15 1.18 1.15 1.14 1.14 1.12 1.09 1.03 1.01 0.98 0.95 0.94 0.93 0.93 0.94 0.93 0.93 0.94 0.94 0.94 0.94 0.94 0.93 0.91 0.88 0.85 0.82 0.78 0.75 0.72 0.70 0.68 0.65 0.62 0.59 0.57 0.56 0.54 0.50 0.49 0.48 0.47 0.45 0.43 0.41 0.41 0.43 0.44 0.42 0.39 0.34 0.32 0.30 0.28 0.25 0.25 0.30 0.35 0.39 0.40 0.40
1.12 1.11 1.10 1.10 1.10 1.09 1.08 1.08 1.09 1.08 1.06 1.06 1.05 1.04 1.04 1.02 1.02 1.05 1.04 1.03 1.04 1.07 1.08 1.12 1.15 1.16 1.15 1.14 1.11 1.06 1.02 0.98 0.97 0.98 0.99 0.98 0.98 0.96 0.94 0.93 0.94 0.97 0.98 0.98 0.99 0.96 0.92 0.87 0.83 0.81 0.78 0.74 0.70 0.68 0.67 0.64 0.61 0.59 0.56 0.55 0.53 0.51 0.48 0.47 0.47 0.47 0.44 0.42 0.40 0.40 0.40 0.39 0.37 0.33 0.30 0.29 0.27 0.25 0.25 0.28 0.32 0.37 0.40 0.40 0.40
1.06 1.07 1.07 1.08 1.08 1.07 1.07 1.06 1.05 1.05 1.06 1.06 1.06 1.07 1.06 1.04 1.05 1.07 1.07 1.07 1.10 1.13 1.14 1.15 1.15 1.13 1.10 1.08 1.05 1.02 0.99 0.99 1.00 1.01 1.00 0.98 0.97 0.97 0.97 0.99 1.01 0.98 1.00 0.97 0.95 0.93 0.88 0.84 0.81 0.79 0.74 0.68 0.66 0.66 0.65 0.62 0.60 0.58 0.55 0.53 0.51 0.49 0.47 0.45 0.45 0.45 0.42 0.40 0.39 0.39 0.37 0.34 0.32 0.29 0.27 0.26 0.26 0.25 0.24 0.28 0.34 0.37 0.39 0.40 0.40
1.02 1.00 1.00 1.01 1.02 1.02 1.03 1.05 1.04 1.04 1.05 1.05 1.05 1.06 1.07 1.09 1.10 1.11 1.11 1.12 1.13 1.12 1.12 1.11 1.08 1.06 1.03 1.01 1.00 1.00 1.01 1.03 1.03 1.01 0.98 0.96 0.95 0.95 0.96 0.97 0.97 0.96 0.94 0.93 0.91 0.90 0.87 0.83 0.77 0.69 0.65 0.64 0.65 0.67 0.64 0.62 0.61 0.58 0.55 0.52 0.49 0.47 0.45 0.44 0.43 0.43 0.42 0.39 0.37 0.35 0.34 0.32 0.30 0.26 0.26 0.27 0.27 0.26 0.25 0.29 0.33 0.36 0.38 0.39 0.40
1.07 1.07 1.03 1.02 1.03 1.03 1.02 1.04 1.06 1.07 1.06 1.05 1.04 1.05 1.09 1.11 1.12 1.11 1.11 1.10 1.10 1.10 1.09 1.06 1.07 1.07 1.07 1.04 1.04 1.02 1.04 1.05 1.06 1.05 1.02 1.00 0.99 0.99 0.99 0.96 0.95 0.94 0.91 0.90 0.90 0.87 0.83 0.77 0.71 0.67 0.65 0.64 0.67 0.68 0.66 0.64 0.62 0.59 0.56 0.54 0.51 0.49 0.47 0.45 0.44 0.43 0.42 0.40 0.36 0.36 0.36 0.37 0.36 0.32 0.29 0.29 0.29 0.28 0.26 0.29 0.34 0.37 0.39 0.39 0.40
1.10 1.09 1.07 1.06 1.01 1.03 1.01 1.02 1.03 1.03 1.04 1.05 1.06 1.07 1.07 1.06 1.07 1.03 1.04 1.07 1.08 1.06 1.05 1.07 1.07 1.04 1.03 1.02 1.03 1.04 1.04 1.03 1.05 1.03 1.02 1.02 0.99 0.97 0.95 0.94 0.92 0.91 0.89 0.88 0.88 0.85 0.80 0.75 0.71 0.67 0.67 0.66 0.71 0.71 0.68 0.66 0.64 0.62 0.61 0.59 0.57 0.54 0.51 0.48 0.46 0.43 0.42 0.42 0.40 0.41 0.43 0.42 0.40 0.36 0.32 0.30 0.30 0.31 0.29 0.30 0.33 0.37 0.39 0.39 0.39
1.04 1.07 1.06 1.06 1.06 1.04 1.05 1.03 1.01 1.01 1.00 1.00 1.01 1.02 1.04 1.06 1.05 1.05 1.03 1.03 1.02 1.03 1.02 1.03 1.03 1.04 1.03 1.02 1.00 1.02 1.01 1.02 1.01 1.00 1.00 0.97 0.95 0.94 0.92 0.91 0.89 0.88 0.87 0.86 0.83 0.80 0.77 0.75 0.72 0.68 0.68 0.68 0.69 0.69 0.67 0.67 0.67 0.66 0.65 0.62 0.60 0.58 0.55 0.52 0.50 0.49 0.47 0.45 0.45 0.43 0.44 0.44 0.42 0.39 0.35 0.32 0.30 0.31 0.31 0.31 0.34 0.37 0.38 0.38 0.39
0.98 1.00 1.02 1.02 1.04 1.04 1.04 1.04 1.03 0.99 0.96 0.95 0.95 0.96 0.97 0.98 0.99 1.01 1.01 1.01 1.01 1.01 1.00 0.99 1.01 1.01 1.01 1.01 1.00 0.99 0.99 0.98 0.97 0.96 0.95 0.94 0.93 0.92 0.92 0.91 0.89 0.87 0.85 0.82 0.80 0.78 0.75 0.74 0.72 0.70 0.68 0.67 0.67 0.65 0.65 0.66 0.66 0.66 0.65 0.62 0.60 0.59 0.56 0.53 0.53 0.54 0.51 0.49 0.48 0.48 0.48 0.45 0.42 0.39 0.36 0.34 0.33 0.33 0.33 0.34 0.36 0.38 0.39 0.38 0.39
0.96 0.96 0.95 0.95 0.98 1.01 1.04 1.04 1.03 1.02 1.01 0.98 0.95 0.94 0.95 0.94 0.94 0.94 0.95 0.95 0.96 0.96 0.96 0.95 0.93 0.93 0.93 0.94 0.94 0.95 0.95 0.95 0.95 0.96 0.95 0.94 0.94 0.94 0.94 0.94 0.92 0.87 0.82 0.79 0.78 0.77 0.75 0.74 0.73 0.71 0.69 0.67 0.66 0.65 0.64 0.65 0.65 0.64 0.63 0.61 0.60 0.58 0.57 0.55 0.54 0.55 0.53 0.51 0.51 0.49 0.48 0.45 0.43 0.39 0.36 0.36 0.36 0.36 0.36 0.36 0.38 0.38 0.38 0.38 0.39
0.92 0.91 0.92 0.93 0.93 0.95 0.96 0.97 0.97 0.97 0.98 0.97 0.94 0.92 0.91 0.90 0.90 0.90 0.90 0.90 0.90 0.91 0.93 0.93 0.94 0.94 0.94 0.93 0.93 0.93 0.93 0.94 0.94 0.95 0.95 0.95 0.96 0.96 0.94 0.91 0.87 0.83 0.79 0.77 0.76 0.76 0.75 0.75 0.74 0.74 0.73 0.71 0.69 0.67 0.65 0.64 0.63 0.62 0.62 0.62 0.60 0.58 0.56 0.54 0.52 0.52 0.52 0.50 0.48 0.46 0.44 0.43 0.40 0.37 0.36 0.37 0.39 0.38 0.37 0.37 0.38 0.38 0.39 0.39 0.40
Wind_Speed
41 39 38 38 38 38 37 37 36 34 34 33 32 31 29 28 28 26 25 25 25 24 24 24 23 23 22 21 20 19 19 19 18 18 17 17 17 17 16 16 16 16 16 16 16 16 16 16 16 16 15 16 16 16 16 16 17 18 18 19 20 20 20 21 21 20 21 22 22 22 22 22 22 22 21 21 22 23 23 24 24 24 24 24 23
41 40 39 38 38 38 37 36 36 35 35 34 32 32 31 30 28 27 27 26 25 25 25 24 24 24 23 22 20 20 20 20 19 18 18 17 17 17 17 17 17 16 16 16 16 15 15 16 16 15 15 16 16 16 16 16 17 17 18 19 19 20 20 20 21 20 21 22 22 22 22 21 21 21 21 22 22 23 23 23 24 24 24 23 23
42 41 39 39 38 38 37 36 36 36 35 33 32 33 33 31 29 29 28 27 26 26 25 25 24 24 24 23 21 21 21 20 19 19 18 18 17 17 17 17 17 17 16 16 16 15 15 16 16 15 15 15 15 16 16 16 17 17 18 18 19 19 19 20 20 20 20 21 21 21 21 21 20 20 21 22 22 23 23 23 23 24 23 23 23
43 42 41 40 39 38 37 37 37 37 35 34 33 34 33 32 30 30 29 28 27 26 26 25 25 25 25 24 22 21 21 21 20 19 18 18 18 17 17 17 17 17 17 16 16 16 16 16 16 15 15 15 16 16 16 16 17 17 18 18 19 19 19 19 19 20 20 20 20 20 20 20 20 20 21 22 22 22 23 23 23 23 23 23 23
43 43 42 41 39 38 38 38 38 38 36 35 34 34 33 32 31 30 29 29 28 27 26 26 25 25 25 24 23 22 22 21 20 19 19 18 18 18 17 17 17 17 17 17 16 16 16 16 16 15 15 16 16 16 16 17 17 17 18 18 18 19 19 18 19 20 20 20 20 20 20 20 20 20 21 21 22 22 22 23 23 23 23 23 24
45 44 43 42 40 39 39 39 39 38 37 35 34 34 33 32 32 31 30 30 29 27 26 26 26 26 26 25 24 23 22 22 21 20 19 19 18 18 18 17 18 18 18 17 17 16 16 16 16 16 16 16 16 16 16 17 17 17 17 18 18 18 19 19 19 20 20 19 20 20 20 20 20 20 21 21 21 22 22 23 22 22 23 24 24
46 45 44 43 41 40 40 39 39 38 37 36 34 33 33 32 32 31 30 30 29 28 27 27 26 26 27 26 24 23 23 22 21 20 20 19 18 18 18 18 18 18 18 18 17 17 17 16 16 16 16 16 16 16 16 16 17 17 17 17 18 18 18 19 19 19 19 19 19 20 20 20 20 20 20 21 21 21 22 22 22 22 23 24 24
46 45 44 43 42 41 40 39 39 38 37 36 34 33 33 32 32 32 31 30 29 28 28 27 26 27 27 27 25 24 23 23 22 21 20 19 19 18 18 18 18 18 18 18 18 17 17 17 17 17 16 16 16 16 16 16 17 17 17 18 18 18 18 18 19 19 19 19 19 19 19 19 19 19 19 20 21 21 21 22 22 22 23 24 24
46 46 45 44 43 41 40 39 39 38 37 36 35 34 34 33 33 32 31 30 30 29 29 28 27 27 27 27 26 25 24 24 23 22 21 20 19 19 19 18 18 18 18 18 18 18 17 17 17 17 16 16 16 16 16 16 17 17 17 17 17 18 18 19 19 19 19 19 18 18 18 18 18 18 19 19 20 20 21 22 22 23 23 24 24
46 46 45 44 43 41 40 39 39 38 37 36 35 35 34 34 34 33 31 30 30 30 29 28 28 28 28 28 27 26 26 25 24 22 21 20 20 19 19 19 19 19 19 19 19 18 18 18 17 17 16 16 16 16 16 17 17 18 18 17 18 18 19 19 19 18 18 18 18 18 18 18 18 18 18 19 20 21 21 22 22 23 23 24 24
46 46 45 44 43 41 40 40 39 38 37 36 35 34 34 34 34 33 31 30 30 30 29 28 28 28 28 28 28 27 27 26 24 23 22 21 20 19 19 19 19 20 20 19 19 19 19 18 18 17 17 16 16 16 16 17 18 18 18 18 18 18 19 20 19 18 18 18 18 17 17 17 17 18 18 19 20 21 21 22 22 23 23 24 24
45 45 44 44 43 42 41 40 40 39 37 36 35 34 34 35 35 33 31 30 30 30 30 29 29 29 29 29 29 28 28 27 25 24 23 22 21 20 19 19 20 20 20 20 20 20 20 19 18 18 18 17 17 17 17 17 17 18 18 18 18 19 19 19 19 18 18 17 17 17 17 17 17 18 18 19 20 21 21 22 22 23 23 24 24
44 44 43 43 43 43 42 41 40 40 38 36 35 34 34 35 35 33 32 30 30 31 30 29 29 29 29 30 30 29 28 27 26 25 24 23 22 21 20 20 20 21 21 21 21 21 20 20 19 19 19 18 17 17 17 17 18 18 18 18 19 19 19 19 18 18 18 17 17 17 17 17 17 18 18 19 20 21 21 22 22 23 24 24 24
43 43 42 43 44 43 43 42 41 40 38 37 36 35 35 35 35 33 32 31 31 31 30 29 29 30 30 30 30 30 29 28 27 26 24 24 23 22 21 21 21 21 21 21 21 21 21 21 20 20 19 18 18 18 18 17 18 18 18 19 19 20 20 19 18 18 18 17 17 17 17 17 17 18 19 20 20 21 21 22 23 23 24 25 25
43 42 42 43 43 44 43 43 41 40 39 38 37 36 36 36 35 33 32 32 32 31 30 29 30 30 30 31 30 30 29 29 29 27 25 24 24 23 22 21 21 21 21 21 21 22 22 22 21 20 19 18 18 18 18 18 18 18 19 19 19 20 19 19 18 18 18 18 18 17 17 18 18 18 19 20 20 21 21 22 23 24 24 25 25
42 43 43 44 44 44 44 43 42 41 40 39 39 37 36 36 35 34 33 32 32 32 30 30 30 31 31 31 31 30 30 30 30 28 26 25 24 23 22 21 21 21 21 22 22 22 22 22 22 21 20 19 19 18 18 18 18 18 19 19 19 19 19 18 18 18 18 18 18 17 17 18 18 19 19 20 20 21 22 22 23 24 24 24 24
42 42 43 44 44 44 44 44 43 42 41 41 39 38 37 36 35 34 34 33 32 32 31 30 30 31 31 32 32 31 30 30 30 29 27 26 25 23 22 22 22 22 22 22 23 23 23 23 22 22 21 20 19 18 18 18 18 19 19 19 19 19 18 18 18 18 18 18 18 18 18 19 19 19 20 20 21 21 22 22 23 23 23 24 24
41 42 42 42 43 44 45 45 44 43 42 41 39 38 37 36 35 34 34 34 32 32 31 31 30 30 30 31 31 31 31 31 31 30 28 27 26 24 23 23 23 22 22 23 23 23 23 23 23 22 22 20 19 19 19 18 18 19 19 19 18 18 18 18 18 18 18 19 19 19 20 20 20 20 20 21 21 21 21 22 23 23 23 23 24
39 40 40 40 41 42 44 45 44 44 43 41 39 38 37 35 35 34 34 33 32 31 32 31 31 30 30 30 31 31 31 31 31 30 29 28 27 25 24 24 24 23 23 23 23 23 24 23 24 23 22 21 20 19 19 19 19 19 19 19 18 18 18 18 18 18 18 19 19 20 20 20 20 20 21 21 21 21 21 22 23 23 23 23 23
37 38 39 39 40 41 43 43 43 43 42 40 38 36 35 35 35 34 33 32 32 31 32 32 31 30 30 30 31 31 31 31 31 30 29 29 28 26 24 25 25 24 24 24 23 23 24 24 24 24 22 21 20 19 19 19 19 19 19 19 18 18 18 19 19 18 18 19 19 20 20 20 20 20 21 21 21 21 22 22 22 22 22 22 23
35 36 38 38 39 40 41 42 42 41 40 38 37 36 35 35 34 33 32 32 32 31 32 32 32 31 31 31 32 31 31 31 31 31 30 30 29 27 25 25 25 25 25 25 24 24 24 24 25 24 23 21 20 19 19 19 19 19 19 19 18 18 18 19 19 19 19 19 19 20 20 20 20 20 20 21 21 21 21 22 22 22 22 22 23
34 35 36 37 38 39 39 40 40 39 38 37 36 36 36 35 34 33 32 32 32 32 32 32 32 32 32 33 33 32 31 31 31 31 31 31 30 28 26 25 25 24 25 25 25 24 25 25 25 24 23 21 20 19 19 19 19 20 19 19 18 18 18 18 18 19 19 19 19 20 20 20 20 20 20 20 21 21 21 21 22 21 21 22 23
33 34 35 36 37 38 38 38 38 38 38 38 37 36 36 35 34 33 32 33 32 32 31 32 32 32 32 33 33 32 32 32 32 32 31 31 30 29 27 26 25 25 25 25 25 24 24 24 24 23 22 21 20 19 19 19 19 20 19 18 18 18 18 19 19 19 19 19 19 20 20 20 20 20 20 20 20 21 21 21 21 21 22 22 23
33 34 35 36 36 37 37 38 38 38 38 38 37 36 35 35 34 33 32 32 32 31 31 31 32 32 32 33 34 34 33 32 32 32 31 31 31 30 28 27 26 25 25 25 25 24 24 23 23 22 21 20 19 19 19 19 20 20 19 18 17 18 18 19 19 19 19 19 19 20 20 20 20 20 20 20 20 21 21 21 21 22 23 23 23
33 34 34 35 36 37 37 38 39 39 38 37 37 36 35 35 34 33 32 30 30 30 30 31 31 32 33 34 35 35 34 33 33 33 32 31 31 31 29 27 26 26 25 25 25 24 23 22 22 21 20 19 19 19 19 19 20 20 19 18 18 18 19 19 19 19 19 19 19 20 20 20 20 20 20 20 20 21 21 22 22 23 23 23 23
32 33 34 34 36 37 38 38 39 38 38 37 36 36 35 35 34 33 32 31 30 30 30 31 31 31 32 34 35 35 35 34 33 33 32 32 31 31 30 28 27 27 26 24 23 23 22 21 21 20 20 19 19 19 19 19 19 19 18 18 19 19 20 20 20 19 19 19 19 20 20 20 20 20 20 20 21 21 21 22 22 22 22 22 23
31 32 33 34 35 37 37 38 38 37 37 37 36 35 36 35 33 32 32 32 31 31 31 31 31 31 32 32 33 35 35 35 34 33 32 32 32 31 29 28 27 26 24 23 22 22 21 21 20 20 19 19 19 20 20 19 19 18 19 19 20 20 20 20 20 20 20 20 19 20 20 20 20 20 20 20 21 21 21 21 22 22 22 22 22
30 31 32 34 35 35 36 36 36 36 36 37 36 35 35 35 34 33 32 31 31 31 31 31 31 31 31 31 32 33 34 34 34 34 33 32 32 31 29 27 26 24 23 22 22 22 21 21 20 19 19 19 20 20 20 19 19 19 19 20 20 21 21 21 21 20 20 19 20 20 20 20 20 20 20 20 20 21 21 21 22 22 22 22 22
30 31 31 32 32 33 34 34 35 36 36 36 36 35 35 34 34 33 33 32 32 31 31 31 30 31 31 32 32 33 34 34 34 35 35 34 33 32 29 27 26 26 25 23 22 21 21 20 20 19 19 19 19 19 20 20 19 20 20 20 21 21 21 21 21 20 20 20 20 20 20 20 20 20 20 20 20 20 21 21 22 22 22 22 22
31 31 31 31 31 32 33 34 35 35 35 35 35 34 34 33 33 33 34 34 33 32 32 31 31 30 31 32 33 33 34 34 33 34 35 35 34 32 30 28 27 27 26 24 22 22 21 20 20 20 20 19 19 19 19 20 19 19 20 20 21 21 21 21 21 20 20 20 20 20 20 20 20 20 20 20 20 20 21 21 21 22 22 21 21
31 31 32 32 32 32 33 33 33 34 34 34 35 34 34 33 33 33 34 34 34 33 33 32 32 31 30 30 32 32 32 32 32 33 34 35 34 33 31 29 27 27 26 25 24 22 22 21 21 21 20 20 20 20 19 19 19 19 19 20 21 20 20 20 20 20 20 20 20 20 20 20 20 20 20 20 20 20 21 21 21 21 21 21 21
30 31 32 32 33 33 33 33 33 33 34 34 34 34 34 34 33 33 32 32 33 33 33 33 33 33 31 30 30 30 30 31 31 31 32 33 34 33 31 29 27 26 26 26 24 23 22 22 21 21 20 20 20 19 19 19 19 19 19 19 20 20 20 20 20 20 20 20 20 20 20 20 20 20 20 20 20 21 21 22 22 21 21 21 21
30 31 32 32 33 34 34 34 34 35 35 35 35 35 35 35 34 33 32 31 32 33 33 33 33 33 32 30 30 30 30 30 30 30 31 32 33 33 31 30 28 27 27 26 25 23 23 22 22 21 20 20 20 20 20 20 20 20 20 20 20 20 20 21 21 21 20 20 20 20 20 20 20 20 20 20 21 22 22 22 22 21 21 22 21
30 31 32 33 34 34 35 35 35 35 35 35 36 36 35 35 34 33 32 32 31 32 32 32 33 32 31 30 30 30 29 29 29 29 30 32 33 32 31 29 29 28 27 26 25 24 24 23 22 21 20 20 20 20 20 21 21 20 20 20 20 20 20 20 21 21 20 20 20 20 20 20 20 20 20 21 22 22 22 22 21 21 22 21 21
31 31 32 33 34 35 35 36 36 36 36 36 36 36 36 35 35 34 34 33 33 32 32 32 32 32 30 29 28 29 29 29 30 30 30 31 32 32 30 29 28 27 27 26 25 24 24 24 23 22 21 21 21 21 21 21 21 21 20 20 21 21 20 20 20 21 20 20 20 21 21 21 20 20 21 21 22 22 22 21 21 21 21 21 20
30 31 33 34 34 34 35 36 36 37 37 36 36 36 35 35 35 34 34 33 33 32 31 30 30 30 29 28 28 28 28 28 29 29 30 31 32 32 30 29 28 26 25 25 24 24 24 24 23 22 22 22 22 22 22 22 21 21 21 20 20 21 20 20 20 20 20 20 21 21 21 21 21 21 21 21 22 22 22 21 21 21 21 21 20
28 29 31 33 34 34 34 35 35 36 36 36 36 36 35 35 35 34 33 33 32 31 31 30 30 29 29 28 28 28 27 27 27 28 29 30 31 31 30 29 27 26 25 24 24 24 23 23 23 23 22 22 23 23 22 21 21 21 21 20 20 20 20 20 20 19 20 21 21 20 20 20 21 21 21 21 21 21 21 21 21 21 21 20 20
25 26 28 30 31 32 33 33 33 34 34 35 35 34 34 34 33 33 33 33 32 31 31 31 31 30 30 29 28 27 26 26 27 28 29 30 30 29 28 27 26 26 25 25 24 24 23 23 23 23 23 23 23 23 22 21 21 21 21 21 21 20 20 20 20 20 20 21 20 20 20 20 20 20 20 21 21 21 21 21 20 20 20 19 19
23 24 25 26 28 29 30 31 32 33 33 33 33 33 33 32 32 32 32 32 32 31 31 31 30 30 30 30 29 27 27 27 28 28 28 29 28 27 26 26 26 26 25 24 24 23 23 23 23 23 23 23 22 22 22 22 22 22 21 21 21 21 21 20 20 20 20 20 20 20 20 20 20 20 20 21 21 21 21 21 20 20 19 19 19
20 21 22 23 24 26 27 28 30 31 31 31 31 32 32 32 32 31 31 31 31 31 31 31 30 30 30 30 30 28 28 28 29 28 28 28 27 26 26 26 26 25 24 23 23 23 23 23 23 23 23 22 22 22 22 22 22 22 22 21 21 21 21 21 21 21 21 20 20 20 19 19 19 20 20 21 21 21 21 21 20 20 19 19 19
16 18 19 20 21 22 24 25 27 28 29 30 30 31 31 31 31 31 30 30 30 30 30 30 30 30 29 30 29 28 28 27 27 27 27 27 27 26 26 25 25 24 23 23 23 23 23 24 23 23 23 23 22 22 22 21 21 21 21 22 22 22 22 21 21 21 21 21 20 20 20 20 19 20 20 21 21 21 21 21 20 19 19 19 19
14 15 16 17 18 19 20 22 24 25 27 28 29 30 30 30 30 30 29 29 29 29 29 29 29 29 29 30 30 28 27 27 27 26 26 26 26 25 24 24 23 23 23 23 23 23 23 23 23 22 22 22 22 21 21 21 21 21 22 22 23 22 22 22 21 21 21 21 21 21 21 20 20 21 21 21 21 21 21 20 19 19 19 19 18
11 13 13 14 15 17 18 19 21 23 24 26 27 28 28 29 29 29 28 27 26 27 28 28 28 28 29 29 29 28 27 27 26 26 25 25 24 24 23 23 23 23 23 23 23 23 23 23 22 21 21 21 21 21 21 21 21 22 22 22 22 22 22 22 22 21 21 21 21 21 21 21 22 22 22 22 22 21 21 20 19 19 19 18 18
8 9 9 11 12 13 14 16 18 20 22 23 23 24 24 25 26 26 25 24 24 25 27 27 28 28 28 28 28 27 26 25 25 25 24 24 24 23 23 23 23 23 22 22 22 23 22 22 21 21 21 21 21 21 21 21 22 22 22 22 22 22 22 22 22 21 21 21 21 21 21 21 22 22 22 22 22 21 20 20 19 19 19 18 18
6 7 7 8 9 9 9 9 11 14 17 18 19 19 20 21 22 22 23 23 23 24 25 25 25 26 26 26 26 25 24 24 24 23 23 23 23 23 22 22 22 22 22 22 22 22 22 22 21 21 21 21 21 21 21 21 21 22 22 22 21 22 22 22 22 21 21 21 21 21 21 21 21 22 22 21 21 20 20 20 19 19 19 18 18
6 6 7 7 7 8 8 9 9 10 13 15 16 17 17 18 19 20 21 22 22 23 23 23 23 24 24 24 24 23 23 23 24 24 23 23 23 22 22 21 22 22 22 22 22 22 22 22 21 21 22 22 21 21 21 21 21 21 21 21 21 21 21 21 21 21 21 21 21 20 20 21 21 21 21 21 20 20 20 19 19 19 19 18 18
5 6 7 8 7 7 8 9 9 10 11 13 14 15 16 17 18 18 19 20 20 21 22 22 22 22 23 23 23 23 22 23 23 23 23 23 23 22 22 22 22 22 22 22 23 23 23 23 22 23 23 23 23 22 22 21 21 21 21 21 22 22 21 21 21 21 21 21 21 20 20 20 21 21 21 21 20 20 20 19 19 19 18 18 18
6 6 7 8 8 8 8 9 10 10 10 11 12 13 14 15 16 16 17 17 18 19 19 20 20 21 21 21 22 22 22 22 22 23 23 23 23 22 22 22 22 22 22 23 23 23 23 23 24 24 24 24 24 24 23 23 22 22 22 22 22 22 21 21 21 21 21 21 21 21 21 21 21 20 20 20 20 20 20 19 19 19 18 18 18
7 7 7 8 8 9 9 10 10 10 10 10 11 11 12 12 13 13 14 15 16 16 17 18 19 19 20 21 22 22 22 22 22 22 22 22 22 23 23 23 23 23 24 24 24 23 23 24 24 24 24 24 24 24 24 24 23 23 23 23 23 22 22 22 21 21 21 21 21 22 21 21 21 21 20 20 20 20 20 20 19 19 18 18 18
8 8 9 9 9 10 10 10 10 10 11 11 11 11 12 12 12 13 14 15 16 16 17 18 19 19 19 20 21 21 21 21 21 22 22 22 23 23 24 24 24 24 24 24 24 24 24 24 24 24 24 24 24 24 24 24 24 24 23 23 23 23 22 22 22 22 22 22 22 22 22 22 22 21 21 20 20 20 20 20 19 18 18 18 18
9 9 9 10 10 11 11 10 10 11 11 11 11 11 11 12 13 13 14 15 16 16 17 18 18 18 18 18 19 20 20 20 21 21 22 22 23 23 23 23 23 23 23 23 23 23 24 24 24 24 24 24 24 24 24 24 24 24 23 23 23 23 23 23 23 24 23 23 23 23 23 22 22 21 21 21 20 20 20 19 19 19 18 18 18
Wind_Direction
229 230 230 230 229 230 232 232 233 235 237 239 240 241 242 244 244 244 245 245 244 244 247 248 247 247 248 249 251 251 251 251 252 253 254 257 260 262 261 261 262 263 264 265 267 267 267 266 266 267 267 268 271 273 275 278 280 283 287 289 290 290 291 293 298 303 305 304 305 305 305 306 306 307 308 308 309 311 313 315 317 319 320 318 317
229 230 230 229 229 230 231 231 232 233 235 238 239 241 242 243 243 242 243 244 243 243 246 247 247 247 247 248 249 249 250 250 251 252 253 256 258 260 261 260 260 262 263 264 265 266 266 265 265 266 266 268 271 273 275 278 281 284 287 289 290 290 290 292 297 301 303 303 304 305 305 306 306 307 308 307 309 312 314 315 318 319 319 319 318
229 230 229 229 229 230 230 230 231 232 234 236 239 241 242 242 242 241 241 243 243 242 245 247 246 246 246 247 247 247 248 249 250 251 252 254 256 259 260 259 259 260 262 263 263 264 265 265 265 265 266 268 270 273 276 278 282 285 288 290 291 291 291 292 295 300 303 303 304 304 305 305 306 307 308 308 311 314 315 316 318 318 318 319 319
229 229 229 229 229 229 229 229 230 232 234 237 239 240 240 241 241 240 240 242 242 242 244 246 245 245 245 245 245 246 246 247 248 250 251 253 255 257 258 258 258 259 260 261 261 262 263 264 264 264 265 267 269 273 277 280 283 286 289 291 291 292 292 291 294 299 303 304 304 305 305 305 306 307 308 310 312 314 316 317 317 318 318 318 319
228 228 228 228 228 228 229 228 230 232 234 237 238 238 239 239 239 239 239 241 241 241 243 245 245 244 244 243 243 244 245 245 247 248 250 252 254 257 257 256 257 258 259 259 260 261 262 263 263 263 264 266 269 273 277 280 283 286 289 291 293 293 292 290 294 300 303 304 304 305 304 304 306 307 309 311 313 314 316 317 317 318 318 319 319
227 227 228 228 228 228 229 229 230 232 234 235 236 237 238 238 238 238 239 239 240 241 242 244 245 244 242 242 242 243 243 244 245 247 249 251 253 256 257 256 256 257 258 258 258 260 261 262 262 262 264 267 270 274 277 279 283 286 288 291 294 294 292 291 296 299 301 303 304 303 303 303 305 307 309 311 313 315 316 317 317 318 319 320 320
227 227 227 228 229 229 229 229 230 231 233 234 235 236 236 236 237 237 238 238 239 240 241 242 244 243 241 240 240 242 242 243 244 246 248 249 252 255 256 256 256 257 257 257 258 259 260 261 262 262 264 268 271 274 276 278 282 285 288 291 294 294 293 293 295 298 300 302 302 302 302 302 305 307 309 312 314 315 317 318 319 319 320 320 321
226 227 227 228 229 229 229 230 230 230 231 233 234 234 234 235 236 236 237 237 238 239 240 241 242 241 240 239 239 240 241 242 243 245 247 249 251 254 255 255 256 256 256 256 257 257 258 260 261 262 264 267 270 273 275 278 282 285 288 291 292 293 293 294 295 297 299 300 301 301 301 302 304 306 308 311 314 315 317 319 319 319 320 320 320
226 226 227 228 229 229 228 228 229 229 230 231 233 232 232 233 234 235 236 237 238 239 239 240 240 239 238 238 238 239 240 241 243 243 245 248 250 254 255 254 255 255 255 255 255 255 257 259 260 261 264 267 269 272 275 279 283 285 287 289 290 291 293 294 295 297 298 298 298 299 300 302 304 306 308 310 313 315 317 318 319 320 320 320 320
226 226 226 227 228 227 226 226 227 228 229 230 231 231 231 232 232 233 234 236 237 238 238 239 239 237 236 236 237 238 239 240 242 242 244 247 250 253 255 254 254 254 254 254 254 254 255 258 259 260 263 266 269 272 276 280 284 287 287 288 289 290 291 293 295 296 296 296 297 298 300 301 303 305 307 309 312 315 316 318 319 320 321 321 321
226 226 226 227 226 225 225 225 226 227 228 229 230 230 229 231 231 232 233 234 236 237 237 238 238 236 235 235 236 237 238 239 240 242 244 246 249 253 255 254 255 254 253 253 254 253 254 256 258 260 262 266 269 272 276 280 283 286 287 288 290 290 291 292 293 293 294 296 297 298 299 301 302 304 307 309 311 314 316 318 319 320 321 322 322
225 225 226 226 225 225 224 224 225 226 227 228 229 229 229 230 230 231 232 233 235 236 236 237 237 235 234 235 235 237 238 238 239 241 243 245 248 252 254 255 255 255 254 253 253 253 253 255 258 260 261 265 269 272 276 280 282 285 286 287 289 290 292 293 293 292 293 295 297 297 299 301 302 304 306 309 312 314 316 317 319 320 321 322 322
224 224 224 225 225 225 224 223 224 224 226 227 229 229 229 229 230 231 231 232 234 235 235 236 237 235 234 234 235 237 237 237 238 240 242 244 247 251 254 255 255 255 254 254 254 253 253 254 257 259 262 265 269 272 275 278 281 284 286 287 287 289 291 293 293 292 293 294 295 296 298 300 302 304 305 308 311 314 316 317 319 320 321 321 322
222 223 224 224 225 224 223 223 224 224 225 227 228 229 230 230 229 230 231 232 234 235 234 235 236 235 234 235 235 237 237 236 237 239 241 244 247 250 253 255 255 255 255 254 254 253 252 253 255 259 262 264 268 271 273 276 280 283 285 286 286 288 290 290 290 290 291 293 294 296 298 299 302 303 304 307 310 313 315 317 319 320 321 321 322
222 222 223 223 224 223 223 223 223 223 224 227 228 229 230 229 229 230 231 232 234 235 234 234 235 235 235 235 236 237 237 236 236 239 241 243 246 249 253 255 256 256 255 254 254 252 251 252 255 258 261 263 266 269 272 275 279 282 285 286 287 287 288 287 287 287 288 290 293 296 297 298 301 302 304 307 310 312 314 316 318 320 320 320 322
222 222 222 223 223 222 222 222 222 222 224 226 227 228 229 229 229 230 231 232 234 234 234 235 236 236 236 235 236 237 237 235 236 238 240 242 245 249 252 254 255 256 256 255 254 252 251 252 254 256 259 262 265 267 271 276 279 282 285 285 286 286 286 286 286 286 287 288 291 294 296 299 301 303 304 308 310 312 314 316 317 318 319 320 322
222 222 222 222 222 222 222 222 222 223 223 224 226 228 230 229 229 231 231 232 234 234 234 235 236 237 237 236 236 237 237 236 236 238 239 241 244 247 250 253 255 256 256 256 255 253 251 251 253 254 258 261 264 266 270 276 279 282 284 284 284 284 284 285 286 285 285 287 289 291 294 298 300 302 304 306 309 311 313 315 317 319 319 320 323
221 221 221 222 222 222 222 222 222 222 222 223 226 229 230 230 231 232 232 232 234 234 234 235 237 238 237 236 236 236 237 236 236 237 238 239 242 246 250 253 255 255 255 256 256 254 251 250 251 253 257 260 263 265 269 275 279 282 282 283 283 283 283 285 286 285 284 286 288 289 292 295 298 301 302 304 306 308 310 313 316 318 319 320 323
221 220 220 220 221 221 221 221 221 221 222 225 228 229 229 230 231 231 231 232 234 235 235 236 237 238 236 235 235 235 236 237 236 237 238 238 241 245 249 251 253 254 254 255 256 254 252 251 251 253 256 259 262 265 269 273 279 281 281 283 283 282 282 284 285 285 285 285 288 289 290 293 296 299 301 302 303 305 307 310 314 316 317 319 322
220 219 219 220 220 220 219 219 219 221 223 226 227 228 228 229 229 229 231 233 234 236 237 237 238 238 236 235 235 235 236 237 237 237 237 238 239 243 248 250 252 252 253 254 255 254 252 252 252 252 255 258 261 265 269 273 277 280 280 282 282 281 282 283 285 285 286 286 288 290 291 293 296 298 301 302 303 304 306 308 311 313 315 317 320
219 219 218 218 219 218 218 217 219 221 223 224 225 226 227 227 227 229 231 233 234 236 238 238 238 238 238 237 236 235 236 237 237 237 237 237 238 242 248 251 251 252 252 253 255 254 251 251 252 251 253 257 260 265 269 271 275 279 280 281 282 282 283 284 285 285 286 288 290 291 291 293 296 298 300 302 303 304 305 307 309 310 312 315 319
219 218 217 217 217 217 216 216 219 221 221 222 224 225 225 225 226 229 231 232 234 237 239 239 239 239 239 238 237 236 237 237 237 236 237 237 239 243 248 250 251 252 252 252 254 254 250 250 251 250 251 256 261 265 269 271 273 277 280 280 282 283 283 285 286 286 287 289 290 291 292 293 295 298 300 302 302 303 305 307 308 309 310 313 316
219 218 217 217 216 216 216 217 218 220 221 222 222 223 223 224 226 229 232 233 235 238 239 240 240 240 239 238 237 237 238 238 237 236 236 237 239 243 247 249 250 252 252 252 254 253 249 249 250 248 250 256 261 265 270 271 271 275 278 279 280 282 283 285 286 287 288 289 290 290 291 293 295 298 300 301 303 304 305 307 308 309 310 312 314
219 219 217 216 216 216 217 218 219 220 221 221 221 222 223 225 227 229 232 235 236 238 239 240 240 240 239 238 236 236 238 238 237 236 235 237 239 242 245 247 250 251 252 252 251 249 247 248 248 247 251 257 261 266 270 272 271 273 275 277 278 280 282 284 286 287 289 289 289 290 291 293 295 298 301 302 303 304 305 307 308 309 310 311 312
219 219 218 217 217 217 218 219 219 219 219 220 221 222 223 225 227 229 232 236 238 239 240 241 242 241 239 238 236 236 237 238 237 235 235 237 240 241 243 246 248 249 250 250 247 245 245 246 245 247 252 257 262 268 272 272 271 271 273 275 277 279 281 283 286 288 289 290 289 289 291 293 296 298 301 301 302 303 304 306 307 308 309 310 312
219 218 218 218 218 217 216 217 218 218 218 220 221 223 224 226 228 230 233 237 239 241 241 242 243 242 240 239 237 237 237 237 236 236 236 238 240 242 243 245 247 247 247 247 243 240 242 244 244 249 254 258 263 269 272 272 271 271 272 274 277 280 282 283 285 288 288 289 289 290 292 294 297 299 299 299 300 302 303 305 307 309 310 311 312
218 218 217 217 217 217 216 215 216 217 218 220 222 224 226 227 229 232 235 238 241 242 243 243 244 243 241 240 238 238 237 236 235 236 236 237 240 241 242 245 246 243 240 239 238 239 242 244 248 253 257 260 264 270 272 272 271 270 272 274 276 279 280 282 283 285 287 289 290 291 293 295 297 298 299 298 300 301 303 304 307 309 310 311 312
217 217 217 216 216 216 216 215 215 217 218 220 222 224 227 229 231 233 236 239 242 244 244 245 245 244 243 241 239 238 237 235 235 236 236 237 238 238 240 244 242 235 232 235 238 240 243 246 251 255 258 261 265 269 271 272 271 271 272 275 276 277 278 279 281 283 286 288 290 291 293 295 296 297 298 298 300 301 303 304 306 308 309 309 310
215 216 216 215 215 215 215 215 217 218 220 222 224 227 229 232 234 236 238 240 242 244 245 245 246 245 243 241 239 238 237 236 236 237 236 235 236 236 238 238 234 231 231 235 237 238 241 245 250 254 258 262 266 268 269 270 271 272 273 274 276 277 277 277 278 280 283 286 288 290 292 295 296 297 297 297 299 301 303 305 306 306 307 308 309
215 216 217 216 216 217 217 217 219 221 222 224 226 229 232 234 236 239 240 241 243 245 245 244 244 244 243 241 239 238 238 238 238 237 234 232 233 234 234 232 230 229 230 233 236 238 241 245 250 254 259 263 265 267 268 269 270 273 273 274 275 276 275 275 277 279 282 284 286 289 291 293 295 296 296 297 298 301 303 304 304 305 306 307 308
216 217 218 218 219 219 220 221 222 223 224 225 227 229 232 236 240 243 243 243 243 244 244 243 242 243 243 241 238 238 239 238 237 235 232 230 229 229 229 229 229 228 228 230 234 238 241 246 252 256 259 263 265 266 268 269 271 273 274 274 274 273 273 275 277 279 281 282 284 286 290 292 294 295 295 296 298 301 302 303 304 305 306 306 306
219 220 220 220 221 221 222 223 224 225 226 228 229 231 234 237 241 244 244 244 244 244 243 242 242 242 242 240 238 237 238 238 236 235 231 228 226 225 226 228 228 227 226 229 234 238 242 247 252 257 260 264 266 267 268 269 271 272 274 274 273 272 273 275 276 277 279 281 282 284 287 290 292 293 294 296 298 299 301 303 303 304 305 305 305
222 223 223 223 223 224 225 225 226 227 229 231 232 234 236 237 239 241 243 244 245 244 242 241 240 240 240 239 238 237 236 235 235 234 230 227 225 225 226 227 228 228 228 231 236 241 244 247 252 258 262 264 266 267 268 269 270 272 273 273 273 274 274 274 274 275 276 279 281 283 285 287 290 291 292 294 296 297 299 301 302 303 304 304 305
225 226 226 226 226 227 227 228 229 230 231 233 234 235 237 238 239 240 241 242 242 242 241 241 239 238 239 239 237 236 235 233 233 232 230 227 225 224 224 226 228 229 231 234 238 242 246 249 254 259 263 265 267 269 269 269 270 272 273 273 274 276 276 275 274 274 275 277 279 282 284 286 287 289 291 293 295 296 298 299 300 301 302 302 303
228 228 228 228 229 230 230 231 232 232 234 235 236 237 238 238 238 239 239 239 239 239 239 238 237 237 238 237 235 234 234 233 232 231 229 225 221 219 220 223 225 228 232 236 240 245 248 251 255 259 263 266 268 269 268 268 269 271 272 273 275 276 277 276 275 274 274 275 277 280 282 283 284 287 290 293 294 295 296 298 298 299 299 300 302
232 232 232 232 233 233 234 234 234 235 235 236 236 237 237 237 237 237 237 237 236 236 236 235 235 236 236 236 234 233 232 232 231 229 225 219 214 214 217 221 224 228 233 237 241 246 250 252 255 259 263 266 268 268 267 267 268 270 272 274 276 277 276 276 276 275 273 274 276 278 279 280 282 285 289 291 293 294 295 295 296 297 297 298 300
233 234 234 234 235 236 236 236 236 236 236 235 235 235 235 235 235 235 234 234 234 235 235 234 233 234 236 236 233 230 228 229 228 223 218 213 213 216 220 223 227 230 234 238 242 246 249 252 255 258 261 264 266 266 266 266 268 270 272 274 276 277 276 276 276 276 274 274 275 277 278 280 282 285 288 290 292 294 294 294 294 295 295 296 297
233 234 233 234 235 236 236 236 235 235 234 234 234 233 233 233 233 233 234 234 234 235 236 235 233 233 233 232 229 226 225 224 220 215 213 212 215 219 223 225 228 231 235 238 241 244 247 251 255 258 261 263 264 265 266 267 268 270 272 275 276 276 276 275 276 275 274 274 275 277 278 280 282 284 287 289 291 292 293 293 293 293 294 294 294
234 234 233 233 233 234 234 234 233 233 233 233 233 233 232 233 232 232 233 234 234 235 235 234 233 231 229 226 224 223 220 215 210 208 209 213 216 220 223 226 229 232 235 238 241 244 248 253 257 260 261 261 261 262 264 266 268 270 272 274 275 275 275 274 273 273 273 273 275 276 277 279 281 284 287 289 290 291 291 291 291 291 292 293 293
232 232 232 232 233 233 233 232 232 232 232 231 231 231 232 232 232 232 233 234 234 233 233 232 231 228 224 220 219 217 213 209 207 208 211 215 218 220 223 227 229 233 236 239 242 246 250 254 258 261 261 260 259 261 263 266 269 270 271 272 274 274 273 272 271 271 271 272 273 274 276 278 281 284 287 288 289 289 290 289 289 288 289 291 292
229 228 228 229 230 231 232 232 232 231 231 230 230 231 231 232 232 232 233 233 233 232 232 230 227 222 217 215 212 209 206 206 208 211 214 216 219 221 224 228 231 234 237 240 245 249 253 254 257 261 261 259 259 261 264 266 267 269 270 271 272 272 272 271 271 270 271 271 271 272 274 277 281 284 286 286 287 287 288 288 287 287 288 289 289
229 229 228 228 229 230 230 231 230 229 229 229 230 230 231 231 231 231 232 233 233 231 227 222 217 213 210 209 208 208 209 209 210 212 214 217 220 223 227 231 234 237 240 243 247 251 253 255 257 260 259 258 258 260 263 265 266 268 270 270 270 270 271 271 271 271 270 271 271 271 272 276 280 283 284 284 285 286 286 285 285 285 287 287 287
225 226 227 227 228 228 229 229 228 228 228 228 229 230 230 230 229 229 230 231 228 222 215 210 207 206 206 206 208 211 213 212 212 213 217 219 222 226 230 234 237 239 241 244 247 250 254 256 257 257 256 256 258 260 262 265 267 268 269 269 269 270 270 271 271 271 270 270 270 271 273 276 279 282 282 282 282 283 283 283 282 283 285 285 285
215 217 219 220 221 223 226 228 229 228 226 225 224 225 225 224 224 224 224 221 214 208 204 203 203 203 203 204 207 211 213 214 215 218 220 221 225 229 233 236 237 238 241 245 249 252 254 256 255 253 254 257 259 261 263 265 267 268 270 270 270 270 270 270 271 271 270 270 270 272 274 277 279 281 281 280 280 281 281 280 280 281 282 283 283
207 205 206 208 208 206 206 208 212 214 215 214 213 214 213 212 211 210 209 205 202 200 200 200 200 201 202 204 207 211 214 216 218 219 221 225 228 232 235 237 239 241 245 249 251 253 254 253 252 252 254 257 259 261 263 264 266 268 270 270 270 270 270 269 269 269 270 270 271 273 275 277 279 279 279 279 279 279 279 278 278 279 279 279 280
199 198 196 195 192 187 182 177 177 180 186 192 197 200 199 197 195 194 193 193 194 196 197 198 200 201 203 206 209 212 214 217 219 221 224 227 231 234 237 240 242 245 249 251 252 252 252 252 252 253 255 256 258 260 262 264 266 267 269 270 270 270 270 269 268 268 268 269 270 273 275 278 279 279 278 277 277 277 276 275 276 276 277 276 277
195 192 191 190 188 186 184 181 175 170 169 173 179 182 182 183 184 185 186 189 193 196 198 200 203 205 207 210 213 215 217 220 223 224 226 228 232 235 238 242 245 248 250 251 251 251 251 251 252 254 255 255 257 259 262 263 265 266 268 269 270 270 269 268 267 267 267 267 269 272 275 277 279 279 278 276 275 275 274 273 273 274 274 273 274
203 194 191 193 195 195 194 192 189 184 178 176 177 178 180 182 185 188 190 193 196 199 201 204 206 208 211 214 217 219 222 224 226 227 229 232 235 238 241 243 246 248 250 251 251 251 251 252 253 255 255 255 256 258 261 263 265 266 268 268 269 269 268 268 267 267 267 268 269 272 274 276 278 279 278 275 273 272 272 271 271 271 271 271 272
212 207 202 199 198 196 197 199 200 200 198 196 193 192 191 193 197 201 203 204 206 207 210 211 213 215 218 221 223 225 227 229 230 232 234 237 239 241 243 244 246 249 252 252 251 251 252 253 254 256 257 256 256 258 261 264 265 266 267 267 267 267 267 267 267 268 269 269 271 272 273 274 275 276 276 275 273 271 270 270 269 269 269 269 270
216 214 211 209 208 207 207 209 211 214 216 215 212 209 208 209 211 214 216 217 217 219 220 220 221 222 223 225 226 227 228 231 233 235 238 240 241 243 244 245 246 249 252 251 250 251 253 254 255 257 257 257 257 259 261 263 264 265 266 266 266 266 265 265 267 268 270 271 272 273 273 273 273 273 273 274 273 271 269 268 267 267 268 268 269
221 218 216 216 217 218 218 220 222 224 226 224 221 219 219 219 221 223 224 225 225 225 225 225 225 225 226 227 228 229 231 234 237 238 239 241 242 244 244 245 247 249 250 250 251 252 254 255 256 257 257 257 257 259 260 262 263 264 265 266 266 266 265 265 267 268 270 272 273 273 272 272 271 270 270 271 272 270 267 266 265 266 267 268 269